User: anonymous   Login
Location: Kunchanapalle
(16.4623°N, 80.6176°E)
Time: 11:31:03
(UTC+00:00)
Language:

Lacrosse 5 rocket - Orbit

View from above orbital plane
View from above orbital plane
View from above satellite
View from above satellite

Ground track
Ground track

The orbit data is extracted from the following two-line orbital elements,

1 28647U 05016B   20296.86351037 +.00000189 +00000-0 +29165-4 0  9996
2 28647 056.9968 082.2956 0126267 015.6144 344.8732 15.06099181079152
Epoch (UTC): 22 October 2020 20:43:27
Eccentricity: 0.0126267
inclination: 56.9968°
perigee height: 460 km
apogee height: 635 km
right ascension of ascending node: 82.2956°
argument of perigee: 15.6144°
revolutions per day: 15.06099181
mean anomaly at epoch: 344.8732°
orbit number at epoch: 7915

The dashed part of the orbit path shows where the satellite is in the earth's shadow,  

DLR